DELTA 1 DEB, 7093

Orbit data source: Space-Track

DELTA 1 DEB, 7093 is space debris in SSO originally from a launch on Tue, 06 Nov 1973 UTC launched from the Air Force Western Test Range (AFWTR). Debris objects in space refer to the collection of defunct objects orbiting the Earth. Examples of debris include non-operational satellites, rocket bodies, and fragments generated from explosions, collisions, or faulty payload assembly.

Loading next visibility...
Identifier
7093, 1973-086CM
Orbit
SSO
Country
Flag of USUS
Related business
Manufacturer
Unknown
Mission
Spacecraft
Bus & Motor
Unknown
Mass
Unknown
Launch date (UTC)
1973-11-06 (52 years ago)
Launch vehicle
Unknown
Launch site
Air Force Western Test Range (AFWTR)
Object type
Payload
Rocket body
Debris
Shape & HBR
Unknown shape, 0.2 m
Radar Cross Section
Medium (>0.1 m² and <1 m²)

Expand to show TLE details & history
Last TLE update: 10 hours ago

TLE from 10 hours ago
0 DELTA 1 DEB
1  7093U 73086CM  25297.53422024 -.00000018  00000-0  25013-3 0  9994
2  7093 102.5884 317.8518 0070671 315.0400 215.3875 12.27049898316467
Epoch: 2025-10-24T12:49Z
TLE epoch observation values (Epoch: 2025-10-24T12:49:16.628Z)
Latitude
9.74603°
Longitude
-85.45764°
Altitude
1,609.646 km
Speed
7.046 km/s
True Right ascension
09h 20m 09s
True Declination
9° 41' 42"
Sunlit
Object was in daylight at epoch
Visualization orbit readout
Latitude
Unknown
Longitude
Unknown
Altitude
Unknown
Speed
Unknown
Apparent Right ascension
Unknown
Apparent Declination
Unknown
Sunlit
N/A
Visualization observer readout
Local Sidereal Time
17:35:13
Azimuth
Unknown
Elevation
Unknown
Doppler factor
Unknown
Orbital elements
Apogee altitude
1,615.706 km
Perigee altitude
1,503.512 km
Semi-major axis
7,937.746 km
Eccentricity
0.00707
Inclination
102.5884°
RAAN
317.8518°
Arg. of periapsis
315.04°
True anomaly
214.92188°
Mean anomaly
215.3875°
Eccentric anomaly
215.15436°
Mean motion
3.069 °/min
Orbital period
117.3 mins
BSTAR
0.00025013
Loading maneuver chart data...
Computing Atmospheric mass density...
Loading historical data...
Loading historical data...
Loading historical data...
Loading historical data...
Loading historical data...
Loading historical data...
Loading historical data...

Documentation

Showing up to 5 results
|